Probability
6 6 6 6 10 0 3 6 3 0 0 0 0 0 0 0 0 0 0 0 0 0 0 0 0 0 0 0 0 0 0 0 0 0 0 0 0 0
6 6 3 6 3 3 3 0 0 0 0 0 0 0 0 0 0 0 0 0 0 0 0 0 0 0 0 0 0 0 0 0 0 0 0 0 0 3
3 3 3 3 3 0 0 3 0 0 0 0 0 0 0 0 0 0 0 3 3 0 0 0 0 0 0 0 0 0 0 0 0 0 0 0 0 0
0 0 0 0 3 0 0 0 0 0 0 0 0 0 0 0 0 0 0 0 0 0 0 0 0 0 0 0 0 0 0 0 0 0 0 0 0 0
0 0 0 0 0 0 0 0 0 0 3 0 0 0 0 0 0 0 0 0 0 0 0 0 0 0 0 0 0 0 0 0 0 0 0 0 0 0
0 0 0 0 0 0 0 3 3 0 3 3 3 3 0 0 0 0 0 0 0 0 0 0 0 0 0 0 0 0 0 0 0 0 0 0 0 0
3 3 3 0 0 0 0 3 3 3 0 0 3 3 0 0 3 6 3 3 0 0 0 0 0 0 0 0 0 0 0 0 0 0 0 0 0 0
3 3 0 0 0 0 0 0 0 0 0 0 3 3 3 0 3 3 3 6 6 0 0 0 0 0 0 0 0 0 0 0 0 0 0 0 0 0
3 3 0 0 0 0 0 0 0 0 0 0 3 3 3 0 3 3 3 3 3 3 3 0 0 0 0 0 0 0 0 0 0 0 0 0 0 0
3 3 3 3 0 0 0 0 0 0 0 0 0 0 0 6 3 3 3 0 0 3 3 0 3 3 0 0 0 0 0 0 0 0 0 0 0 0
0 0 3 0 0 0 0 0 0 0 0 0 0 0 0 0 0 0 0 3 0 0 3 0 0 3 0 0 0 0 0 0 0 0 0 0 0 0
0 0 0 0 0 0 0 0 0 0 0 0 0 0 0 0 0 0 0 0 0 0 0 3 0 0 0 0 0 0 0 0 0 0 0 0 0 0
0 0 0 0 0 0 0 0 0 0 0 0 0 0 0 3 0 0 0 0 0 0 0 0 0 0 0 0 0 0 0 0 0 0 0 0 0 0
0 0 0 0 0 0 0 0 0 0 0 0 0 0 3 3 3 0 0 0 0 0 0 0 0 0 0 0 0 0 0 0 0 0 0 0 0 0
0 0 0 0 0 0 0 0 0 0 0 0 0 0 0 0 0 3 3 3 6 0 0 0 0 0 0 0 0 0 0 0 0 0 0 0 0 0
0 0 0 0 0 0 0 0 0 0 0 0 0 0 0 0 0 0 0 3 3 3 0 0 0 0 3 0 0 0 0 0 0 3 0 0 0 0
0 0 0 0 0 0 0 0 0 0 0 0 0 0 0 0 6 3 3 0 0 0 0 0 0 3 0 0 0 0 0 0 0 0 0 0 0 0
0 0 0 0 0 0 0 0 0 0 0 3 3 3 6 3 3 0 3 0 0 0 0 0 0 3 3 0 0 0 0 0 0 0 0 0 0 0
0 0 0 0 0 0 0 0 0 0 0 0 0 3 3 0 0 0 0 0 0 0 0 0 0 0 0 0 0 0 0 0 0 0 0 0 0 0
0 0 0 0 0 0 0 0 0 0 0 0 0 0 0 0 0 0 0 0 0 0 0 0 0 0 0 0 0 0 0 0 0 0 0 0 0 0
0 0 0 0 0 0 0 0 0 0 0 0 0 0 0 0 0 0 0 0 0 0 0 0 0 0 0 0 0 0 0 0 0 0 0 0 0 0
0 0 0 0 0 0 0 0 0 0 0 0 0 0 0 0 0 0 0 0 0 0 0 0 0 0 0 0 0 0 0 0 0 0 0 0 0 0
0 0 0 0 0 0 0 0 0 0 0 0 0 0 0 0 0 0 0 0 0 0 0 0 0 0 0 0 0 0 0 0 0 0 0 0 0 0
Height
5726 5724 5723 5721 5720 5718 5717 5717 5717 5716 5716 5715 5715 5714 5715 5715 5715 5715 5716 5717 5719 5720 5722 5724 5727 5729 5732 5735 5738 5741 5744 5747 5749 5752 5755 5757 5760 5763
5721 5719 5718 5716 5715 5713 5712 5711 5710 5710 5710 5710 5709 5709 5709 5709 5709 5709 5710 5710 5712 5713 5715 5717 5719 5721 5724 5727 5730 5732 5735 5738 5741 5743 5746 5748 5751 5753
5716 5714 5713 5712 5710 5708 5707 5706 5705 5704 5704 5704 5704 5703 5703 5703 5703 5703 5703 5704 5705 5707 5708 5710 5712 5714 5716 5719 5721 5724 5727 5729 5732 5735 5737 5739 5742 5744
5712 5710 5708 5707 5705 5703 5702 5701 5700 5699 5699 5698 5698 5698 5698 5698 5698 5698 5698 5698 5699 5700 5702 5703 5705 5707 5709 5711 5713 5715 5718 5721 5723 5726 5728 5731 5733 5734
5707 5705 5704 5702 5700 5699 5697 5696 5695 5694 5694 5693 5693 5693 5692 5692 5692 5692 5692 5692 5693 5694 5695 5697 5698 5700 5702 5704 5705 5708 5710 5713 5715 5717 5719 5721 5723 5725
5703 5701 5699 5697 5695 5694 5693 5692 5690 5689 5688 5688 5687 5687 5687 5686 5686 5687 5687 5687 5687 5688 5689 5690 5691 5693 5695 5697 5698 5700 5702 5704 5706 5708 5710 5713 5715 5716
5699 5697 5695 5693 5691 5690 5688 5687 5686 5684 5683 5683 5682 5682 5681 5681 5681 5681 5681 5681 5681 5682 5683 5684 5686 5687 5688 5690 5691 5693 5694 5695 5697 5700 5701 5703 5705 5707
5696 5693 5691 5690 5688 5686 5684 5683 5681 5680 5679 5678 5677 5677 5676 5676 5676 5675 5676 5676 5676 5677 5677 5678 5679 5680 5681 5682 5684 5685 5686 5688 5689 5691 5692 5694 5696 5697
5693 5691 5688 5686 5685 5683 5681 5679 5677 5676 5675 5673 5673 5672 5672 5671 5671 5671 5670 5670 5671 5671 5672 5672 5673 5674 5674 5675 5676 5677 5679 5680 5681 5682 5684 5685 5686 5688
5690 5688 5686 5684 5682 5680 5678 5676 5674 5672 5671 5669 5668 5667 5667 5667 5666 5666 5666 5666 5666 5666 5666 5667 5667 5668 5668 5669 5669 5670 5671 5672 5673 5674 5675 5676 5677 5679
5688 5686 5684 5682 5679 5677 5675 5673 5671 5669 5667 5666 5664 5663 5663 5662 5662 5661 5661 5661 5661 5661 5661 5661 5661 5662 5662 5662 5662 5663 5664 5664 5665 5666 5667 5668 5669 5670
5686 5684 5681 5679 5676 5674 5672 5669 5667 5665 5664 5662 5661 5660 5659 5658 5657 5656 5656 5656 5656 5656 5655 5655 5655 5656 5656 5656 5656 5656 5656 5657 5657 5658 5659 5660 5661 5662
5684 5681 5678 5676 5673 5671 5668 5666 5664 5662 5660 5658 5657 5655 5654 5653 5652 5651 5651 5650 5650 5650 5650 5649 5649 5649 5649 5649 5649 5649 5649 5649 5650 5650 5651 5652 5653 5654
5681 5679 5676 5673 5670 5668 5665 5663 5660 5658 5656 5654 5652 5651 5649 5648 5647 5646 5645 5645 5644 5644 5643 5643 5642 5642 5642 5642 5642 5642 5642 5642 5642 5642 5643 5644 5644 5645
5678 5676 5673 5670 5667 5665 5662 5659 5656 5654 5651 5649 5648 5646 5645 5643 5642 5641 5640 5639 5638 5637 5636 5636 5635 5634 5634 5634 5634 5634 5634 5634 5634 5634 5634 5635 5636 5637
5676 5673 5670 5667 5664 5661 5658 5655 5652 5649 5647 5645 5643 5641 5639 5637 5636 5635 5633 5632 5631 5630 5629 5628 5628 5627 5627 5626 5626 5626 5626 5626 5625 5625 5626 5626 5627 5628
5673 5670 5667 5664 5661 5658 5654 5651 5648 5645 5642 5640 5638 5636 5634 5632 5630 5628 5627 5626 5625 5624 5622 5621 5620 5620 5619 5619 5618 5618 5618 5617 5617 5617 5617 5617 5618 5619
5671 5667 5664 5661 5658 5654 5651 5648 5644 5641 5638 5635 5632 5630 5628 5626 5624 5622 5621 5619 5618 5617 5615 5614 5613 5612 5612 5611 5611 5610 5610 5609 5609 5608 5608 5608 5609 5610
5669 5665 5662 5658 5654 5651 5648 5644 5640 5637 5634 5631 5628 5625 5622 5620 5618 5616 5614 5613 5611 5610 5608 5607 5605 5604 5604 5604 5603 5602 5601 5601 5600 5599 5599 5599 5600 5601
5666 5662 5659 5655 5651 5647 5644 5640 5636 5632 5629 5626 5623 5620 5617 5614 5612 5610 5608 5606 5604 5602 5601 5599 5598 5596 5595 5595 5594 5594 5592 5592 5591 5590 5590 5590 5590 5591
5663 5659 5655 5652 5648 5643 5639 5635 5632 5628 5624 5621 5618 5615 5612 5609 5606 5604 5601 5599 5597 5595 5594 5592 5591 5589 5587 5586 5586 5585 5584 5583 5582 5581 5581 5581 5581 5581
5660 5656 5652 5648 5643 5639 5635 5631 5627 5623 5620 5616 5612 5609 5606 5603 5600 5597 5594 5592 5590 5588 5587 5585 5583 5581 5580 5578 5577 5576 5575 5574 5572 5572 5571 5571 5571 5571
5657 5653 5648 5644 5639 5635 5631 5627 5623 5619 5615 5611 5607 5603 5600 5597 5593 5590 5588 5585 5583 5581 5579 5577 5575 5574 5572 5570 5569 5567 5565 5564 5563 5562 5562 5561 5561 5561
Wind_Speed
20 20 21 21 22 22 22 23 23 23 22 22 22 22 22 22 23 23 24 25 26 27 28 30 32 34 35 36 36 36 36 36 35 35 34 35 36 37
19 19 20 20 20 20 20 20 21 21 21 22 21 22 22 22 22 23 24 25 25 26 27 28 29 31 33 34 35 36 36 36 36 35 35 35 36 37
19 19 19 20 20 20 20 19 19 20 20 20 20 21 21 21 21 23 23 24 25 25 25 27 28 29 30 32 34 34 35 35 35 35 35 35 36 38
19 19 19 19 19 19 19 19 18 19 19 19 19 20 20 20 20 21 21 23 23 24 23 25 26 27 28 29 31 32 33 33 33 34 34 34 35 36
18 18 18 18 18 18 18 18 18 18 18 18 18 19 20 20 20 20 21 21 22 23 24 25 26 27 27 27 28 31 31 31 32 34 34 34 34 34
18 17 18 17 17 17 17 18 18 18 17 18 18 19 20 20 20 20 21 20 21 22 22 23 25 26 26 26 27 29 31 32 33 33 33 34 33 34
17 17 16 16 16 16 16 17 17 17 17 18 18 18 18 18 19 20 20 20 20 21 22 23 24 25 26 26 27 27 28 28 30 31 32 33 33 34
16 15 15 15 15 15 15 15 16 16 16 16 17 17 17 17 18 18 19 19 20 20 21 21 22 23 24 25 26 26 26 27 28 29 30 31 32 32
14 13 13 13 13 13 13 14 14 14 14 15 15 16 16 16 17 17 18 18 18 18 18 19 20 21 22 23 24 24 25 26 27 28 29 30 30 31
12 12 12 12 12 12 12 13 13 14 14 13 14 14 15 15 15 16 16 17 17 17 18 18 19 21 22 22 23 24 25 26 27 28 28 29 29 30
12 12 12 12 12 13 13 13 13 14 14 14 14 14 15 16 17 17 17 17 17 18 19 19 19 20 21 21 23 23 24 25 25 26 27 28 28 29
12 12 13 13 13 13 13 13 13 13 14 14 14 14 15 16 17 17 17 16 17 18 19 19 19 20 20 22 23 23 23 24 25 26 26 27 28 29
13 12 13 13 14 14 14 14 14 14 14 14 15 16 15 15 16 16 17 17 18 18 19 20 21 21 21 22 22 23 24 24 24 25 25 26 28 28
13 13 14 15 15 15 15 15 15 15 15 15 15 15 15 15 16 16 17 18 19 19 20 21 21 21 22 22 23 24 25 25 26 26 26 27 27 27
15 15 15 15 15 16 16 16 16 16 16 16 15 15 15 15 16 16 17 18 19 19 20 21 21 22 22 22 23 24 25 26 27 27 28 28 27 27
15 15 16 17 17 18 18 18 19 18 18 17 17 17 16 16 17 17 18 18 19 20 20 21 21 22 22 22 23 24 25 25 26 27 27 28 28 28
16 16 16 17 17 17 18 18 18 18 18 18 18 18 18 18 18 18 18 19 20 20 20 20 21 21 22 22 23 23 24 25 25 26 27 28 28 29
16 16 17 17 18 18 18 19 19 19 19 18 18 18 18 18 18 18 19 20 21 21 21 21 22 22 23 23 24 24 25 26 26 27 28 28 29 29
17 18 18 18 19 19 19 19 20 20 19 19 18 18 19 19 19 19 19 20 21 21 22 22 23 24 24 25 24 25 25 26 27 27 27 28 28 29
19 19 20 19 20 20 20 20 20 21 20 19 19 19 18 18 19 19 19 19 20 20 21 21 22 22 23 24 24 25 25 25 26 26 27 28 29 30
20 21 21 21 21 22 22 21 21 21 20 20 19 19 19 19 19 19 20 20 20 20 20 21 21 22 22 23 24 25 25 26 27 26 26 27 28 29
21 22 22 22 22 23 22 22 21 21 21 20 20 20 21 21 20 20 21 21 20 20 20 21 21 22 23 23 24 24 24 25 26 26 26 27 28 28
22 23 23 23 23 23 23 22 22 22 21 21 21 20 20 21 21 21 20 20 20 20 20 21 22 22 23 23 24 24 25 26 27 27 27 27 27 28
Wind_Direction
289 290 289 289 289 286 281 277 274 271 269 270 270 267 265 264 264 260 257 254 253 252 249 248 246 246 245 245 244 245 246 246 246 246 245 245 244 246
293 293 292 291 292 289 284 282 278 273 271 270 270 267 266 266 264 261 258 254 251 252 250 249 247 247 247 246 244 244 246 248 248 248 247 246 247 247
297 294 293 293 292 289 286 285 284 280 275 273 269 267 267 267 265 262 259 255 253 253 254 251 248 247 246 245 245 246 248 248 249 250 249 247 248 249
300 297 295 294 292 288 286 286 285 283 278 275 270 267 267 268 267 264 262 258 254 254 254 250 249 247 246 246 245 246 248 249 250 251 251 251 250 250
301 299 297 296 294 290 288 287 287 283 278 276 273 271 270 271 269 266 263 260 256 254 252 250 251 251 250 249 249 247 249 250 251 251 252 253 254 252
302 299 299 298 297 292 289 289 288 284 280 277 274 273 271 270 269 266 265 262 259 258 255 253 254 253 253 252 253 252 251 252 252 252 254 254 254 253
305 302 300 299 297 295 292 291 289 285 282 277 275 274 273 272 271 269 266 264 262 260 258 258 257 256 255 254 255 256 255 253 252 253 254 254 253 253
307 306 303 301 299 296 293 291 289 286 283 278 274 273 274 273 272 272 269 266 262 260 259 258 257 257 257 257 257 257 256 255 254 254 254 255 253 252
314 312 310 308 306 304 301 297 293 290 288 283 278 275 273 274 274 271 269 265 264 263 261 260 260 260 260 259 257 257 257 256 254 254 255 255 253 251
315 313 316 317 317 315 312 305 300 297 293 289 284 281 276 274 274 271 271 269 268 267 265 263 261 261 261 260 258 258 257 257 257 255 255 255 254 252
318 317 316 315 314 312 310 307 305 300 296 292 289 284 280 276 274 273 272 271 270 268 266 266 264 262 262 261 261 260 260 259 258 258 256 255 255 254
325 321 320 317 316 313 311 309 308 305 299 296 292 289 285 281 278 277 276 272 270 268 267 268 268 266 264 263 263 262 261 261 260 258 257 256 255 255
325 322 319 317 315 314 312 310 307 306 304 299 296 294 291 286 283 282 279 276 272 270 269 270 271 269 266 264 263 263 262 263 262 260 258 257 257 257
326 325 323 321 320 318 316 315 312 308 305 303 300 298 294 289 288 285 280 279 275 271 271 272 270 268 268 266 264 263 263 263 263 262 261 260 259 259
325 325 324 323 321 320 318 316 315 313 310 307 303 300 297 293 291 288 283 281 279 275 273 273 271 270 269 268 266 264 264 263 263 262 262 262 261 259
330 328 326 325 322 323 323 321 321 320 317 311 305 301 298 294 291 289 286 284 282 280 277 275 273 271 271 270 269 267 265 265 264 263 262 262 262 261
333 332 331 331 329 327 326 324 322 319 316 312 307 304 300 295 292 289 287 285 284 284 283 280 276 273 273 273 273 272 270 269 268 266 263 261 260 260
338 337 334 333 332 331 330 328 326 323 320 316 312 308 304 299 295 293 291 288 286 286 286 283 279 274 272 273 273 272 270 269 268 267 265 262 260 260
340 337 335 332 331 330 329 327 324 322 320 317 314 311 307 302 298 295 292 290 288 286 286 284 280 277 274 272 273 271 271 270 270 268 267 264 262 261
339 336 335 333 331 329 327 325 323 321 318 315 313 312 308 304 301 298 295 291 289 288 286 285 283 280 278 276 274 275 274 272 271 269 267 265 263 262
340 337 335 333 332 330 328 325 323 322 320 316 314 313 310 307 301 298 297 294 289 288 287 285 283 282 281 281 278 278 276 275 273 271 267 264 263 263
341 339 336 334 332 331 329 327 326 324 321 318 315 312 310 308 305 301 299 297 293 290 288 287 284 284 283 282 280 279 277 276 274 271 269 266 264 263
341 340 339 337 334 332 331 330 328 326 323 320 318 314 311 309 308 306 304 301 297 294 292 291 289 287 286 284 282 282 280 277 275 273 271 269 267 265